This is the latest recevied weather packets stored in our database for station/object N0FDH. If no packets are shown the sender has not sent any weather packets the latest 10 day(s).
| Time | Temp. | Humidity | Pressure | Rain* | Wind** | Luminosity | Snow |
|---|---|---|---|---|---|---|---|
| 1777815906 | 13.33° C | 54% | 1005.4 hPa | 0 mm | - | 99 W/m² | - |
| 1777815603 | 13.33° C | 53% | 1005.5 hPa | 0 mm | - | 123 W/m² | - |
| 1777815300 | 12.78° C | 54% | 1005.5 hPa | 0 mm | - | 111 W/m² | - |
| 1777814997 | 12.78° C | 54% | 1005.6 hPa | 0 mm | - | 114 W/m² | - |
| 1777814694 | 12.78° C | 52% | 1005.6 hPa | 0 mm | - | 70 W/m² | - |
| 1777814390 | 12.78° C | 56% | 1005.5 hPa | 0 mm | - | 59 W/m² | - |
| 1777814087 | 12.78° C | 56% | 1005.6 hPa | 0 mm | - | 47 W/m² | - |
| 1777813784 | 12.78° C | 54% | 1005.4 hPa | 0 mm | - | 73 W/m² | - |
| 1777813482 | 12.78° C | 58% | 1005.7 hPa | 0 mm | - | 44 W/m² | - |
| 1777813179 | 12.22° C | 56% | 1005.6 hPa | 0 mm | - | 57 W/m² | - |
| 1777812877 | 12.22° C | 56% | 1005.5 hPa | 0 mm | - | 57 W/m² | - |
| 1777812573 | 12.22° C | 56% | 1005.4 hPa | 0 mm | - | 38 W/m² | - |
| 1777812271 | 11.67° C | 58% | 1005.3 hPa | 0 mm | - | 52 W/m² | - |
| 1777811969 | 11.67° C | 58% | 1005.4 hPa | 0 mm | - | 36 W/m² | - |
| 1777811667 | 11.67° C | 59% | 1005.5 hPa | 0 mm | - | 49 W/m² | - |
| 1777811362 | 11.11° C | 61% | 1005.2 hPa | 0 mm | - | 43 W/m² | - |
| 1777811060 | 11.11° C | 61% | 1005.3 hPa | 0 mm | - | 34 W/m² | - |
| 1777810757 | 10.56° C | 62% | 1005.3 hPa | 0 mm | - | 45 W/m² | - |
| 1777810454 | 10.56° C | 63% | 1005.2 hPa | 0 mm | - | 28 W/m² | - |
| 1777810149 | 10.56° C | 64% | 1005 hPa | 0 mm | - | 26 W/m² | - |
| 1777809847 | 10° C | 64% | 1005.2 hPa | 0 mm | - | 25 W/m² | - |
| 1777809544 | 10° C | 66% | 1005.3 hPa | 0 mm | - | 27 W/m² | - |
| 1777809242 | 10° C | 66% | 1005.2 hPa | 0 mm | - | 26 W/m² | - |
| 1777808940 | 9.44° C | 67% | 1005 hPa | 0 mm | - | 21 W/m² | - |
| 1777808636 | 9.44° C | 67% | 1005.2 hPa | 0 mm | - | 19 W/m² | - |
* Rain latest hour (hover to see other rain measurements)
** Current wind speed in m/s (hover to see current wind gust speed)